This is the latest recevied weather packets stored in our database for station/object W6MAF. If no packets are shown the sender has not sent any weather packets the latest 10 day(s).
| Time | Temp. | Humidity | Pressure | Rain* | Wind** | Luminosity | Snow |
|---|---|---|---|---|---|---|---|
| 1788058263 | 25° C | 27% | - | 0 mm | 7.6 m/s, 174° | - | - |
| 1788057965 | 25° C | 27% | - | 0 mm | 8.05 m/s, 174° | - | - |
| 1788057367 | 25° C | 26% | - | 0 mm | 8.05 m/s, 184° | - | - |
| 1788056771 | 25.56° C | 24% | - | 0 mm | 8.05 m/s, 177° | - | - |
| 1788056473 | 25.56° C | 24% | - | 0 mm | 8.49 m/s, 160° | - | - |
| 1788056176 | 26.11° C | 23% | - | 0 mm | 8.49 m/s, 179° | - | - |
| 1788055875 | 26.11° C | 21% | - | 0 mm | 8.05 m/s, 177° | - | - |
| 1788055577 | 26.67° C | 20% | - | 0 mm | 7.6 m/s, 172° | - | - |
| 1788055279 | 26.67° C | 18% | - | 0 mm | 6.26 m/s, 162° | - | - |
| 1788054982 | 26.67° C | 17% | - | 0 mm | 7.6 m/s, 158° | - | - |
| 1788054684 | 27.22° C | 16% | - | 0 mm | 6.26 m/s, 179° | - | - |
| 1788054386 | 27.22° C | 16% | - | 0 mm | 6.26 m/s, 179° | - | - |
| 1788054085 | 27.22° C | 15% | - | 0 mm | 6.26 m/s, 155° | - | - |
| 1788053788 | 27.22° C | 15% | - | 0 mm | 7.15 m/s, 159° | - | - |
| 1788053490 | 27.78° C | 14% | - | 0 mm | 5.36 m/s, 159° | - | - |
| 1788053192 | 27.78° C | 14% | - | 0 mm | 6.26 m/s, 148° | - | - |
| 1788052894 | 27.78° C | 13% | - | 0 mm | 6.26 m/s, 153° | - | - |
| 1788051998 | 27.78° C | 14% | - | 0 mm | 3.13 m/s, 165° | - | - |
| 1788051700 | 27.78° C | 14% | - | 0 mm | 4.92 m/s, 153° | - | - |
| 1788051402 | 27.78° C | 14% | - | 0 mm | 4.47 m/s, 135° | - | - |
| 1788051105 | 27.78° C | 13% | - | 0 mm | 4.92 m/s, 155° | - | - |
| 1788050807 | 27.78° C | 13% | - | 0 mm | 4.47 m/s, 174° | - | - |
| 1788050506 | 27.78° C | 13% | - | 0 mm | 5.81 m/s, 167° | - | - |
| 1788050208 | 27.78° C | 13% | - | 0 mm | 5.81 m/s, 155° | - | - |
| 1788049918 | 27.78° C | 13% | - | 0 mm | 4.47 m/s, 180° | - | - |
* Rain latest hour (hover to see other rain measurements)
** Current wind speed in m/s (hover to see current wind gust speed)